Regional Weather Roundup
Issued by NWS

Home | Current Version | Previous Version | Text Only | Print | Product List | Glossary On
Versions: 1 2 3 4 5 6 7 8 9 10 11 12 13 14 15 16 17 18 19 20 21 22 23 24 25 26 27 28 29 30 31 32 33 34 35 36 37 38 39 40 41 42 43 44 45 46 47 48 49 50
000
ASUS44 KMEG 300510
RWRTN
TENNESSEE HOURLY STATE WEATHER ROUNDUP
NATIONAL WEATHER SERVICE MEMPHIS TN
1200 AM CDT FRI SEP 30 2016

TNZ002-004-019-021-049-052-054-088>092-300600-
WEST TENNESSEE

CITY           SKY/WX    TMP DP  RH WIND       PRES   REMARKS
MEMPHIS INTL   PTCLDY    63  53  70 NW3       30.13F
NWS MEMPHIS      N/A     59 N/A N/A MISG        N/A
JACKSON          N/A    N/A N/A N/A MISG      30.12F
DYERSBURG      CLEAR    N/A N/A N/A MISG        N/A
UNION CITY     CLEAR     55  55 100 CALM      30.11F
PARIS          CLEAR     52  52 100 CALM      30.11F
HUNTINGDON     PTCLDY    55  54  94 W3        30.09F
LEXINGTON      CLEAR     52  50  93 CALM      30.10F
$$

TNZ008-025-027-028-033-062-065-066-300600-
NORTH MIDDLE TENNESSEE

CITY           SKY/WX    TMP DP  RH WIND       PRES   REMARKS
NASHVILLE      CLEAR     51  49  92 S5        30.10F
PORTLAND       CLOUDY    52  52 100 CALM      30.09F
CLARKSVILLE    CLEAR     54  52  93 W6        30.09F
SMYRNA         CLEAR     50  50 100 SE3       30.10F
COOKEVILLE     CLEAR     48  48 100 W3        30.08F
GALLATIN       MOCLDY    50  48  93 CALM      30.12F
CROSSVILLE     CLEAR     46  45  96 W3        30.09F
$$

TNZ061-075-076-078-094-096-097-300600-
SOUTH MIDDLE TENNESSEE

CITY           SKY/WX    TMP DP  RH WIND       PRES   REMARKS
FAYETTEVILLE   CLOUDY    50  50 100 CALM      30.10F
TULLAHOMA      CLEAR     48  46  93 CALM      30.11F
WINCHESTER     CLEAR     54  52  94 CALM      30.10F
MCMINNVILLE    CLEAR     46  46 100 CALM      30.10F
COLUMBIA       CLEAR    N/A N/A N/A CALM      30.09F
SHELBYVILLE    CLEAR     48  48 100 CALM      30.12F
$$

TNZ017-018-042-046-047-300600-
NORTHEAST TENNESSEE

CITY           SKY/WX    TMP DP  RH WIND       PRES   REMARKS
TRI CITIES     CLOUDY    59  55  87 CALM      30.05F
ELIZABETHTON   CLOUDY    57  57 100 CALM      30.05F
$$

TNZ012-013-036-069-073-074-300600-
CENTRAL EAST TENNESSEE

CITY           SKY/WX    TMP DP  RH WIND       PRES   REMARKS
KNOXVILLE      CLOUDY    58  48  69 N3        30.05F
OAK RIDGE      PTCLDY    51  47  86 CALM      30.08F
DOWNTOWN KNOXV CLOUDY    57  52  82 CALM      30.06F
GATLINBURG     CLOUDY    59  48  67 CALM      30.05F
MORRISTOWN     CLOUDY    57  52  82 CALM      30.05F
JACKSBORO      CLEAR     50  48  93 CALM      30.10F
$$

TNZ083-085-099-300600-
SOUTHEAST TENNESSEE

CITY           SKY/WX    TMP DP  RH WIND       PRES   REMARKS
CHATTANOOGA    CLEAR     57  48  72 NW7       30.08F
$$

SKY/WX REPORTED AS FAIR MEANS FEW OR NO CLOUDS BELOW
12 THOUSAND FEET.




USA.gov is the U.S. government's official web portal to all federal, state and local government web resources and services.